Simultaneous Nadir Overpasses (SNOs) Predictions

Prediction of SNOs between GOES-15 and TERRA Satellite Orbit:

Table of predicted SNOs for the next 14.0 days since TLE Epoch: 3/30/2024
Index Date Time (GOES-15) GOES-15 Lat,Lon TERRA Lat,Lon Distance(km) Time Diff (sec)
1 03/31/2024 05:46:34 -0.07, 61.22 -0.01, 60.93 32.93 80
2 04/02/2024 05:32:09 -0.08, 61.23 -0.85, 65.05 433.25 80
3 04/02/2024 17:52:17 0.08, 61.20 -0.12, 60.14 119.55 80
4 04/04/2024 17:32:32 0.08, 61.22 0.70, 64.27 346.42 80
5 04/05/2024 05:52:32 -0.09, 61.27 0.28, 59.40 211.57 80
6 04/07/2024 05:38:06 -0.09, 61.29 -0.57, 63.53 254.79 80
7 04/07/2024 17:58:14 0.09, 61.25 -0.44, 58.63 297.51 80
8 04/09/2024 17:38:27 0.09, 61.28 0.39, 62.76 168.53 80
9 04/10/2024 05:58:27 -0.10, 61.33 0.62, 57.90 389.90 80
10 04/12/2024 05:44:00 -0.10, 61.36 -0.25, 62.02 75.67 80
11 04/12/2024 18:04:08 0.11, 61.32 -0.74, 57.12 476.52 80
